TimeCDT,TemperatureF,Dew PointF,Humidity,Sea Level PressureIn,VisibilityMPH,Wind Direction,Wind SpeedMPH,Gust SpeedMPH,PrecipitationIn,Events,Conditions,WindDirDegrees,DateUTC
12:53 AM,48.9,32.0,52,29.77,10.0,South,3.5,-,N/A,,Scattered Clouds,190,2012-10-03 05:53:00
1:53 AM,48.9,34.0,56,29.78,10.0,SSW,3.5,-,N/A,,Clear,210,2012-10-03 06:53:00
2:53 AM,46.0,34.0,63,29.78,10.0,SSW,4.6,-,N/A,,Clear,210,2012-10-03 07:53:00
3:53 AM,45.0,36.0,71,29.80,10.0,Calm,Calm,-,N/A,,Clear,0,2012-10-03 08:53:00
4:53 AM,44.1,36.0,73,29.83,10.0,Calm,Calm,-,N/A,,Clear,0,2012-10-03 09:53:00
5:53 AM,46.9,37.0,68,29.86,10.0,WNW,3.5,-,N/A,,Clear,290,2012-10-03 10:53:00
6:53 AM,46.0,37.9,73,29.88,10.0,WNW,4.6,-,N/A,,Clear,300,2012-10-03 11:53:00
7:53 AM,45.0,39.0,80,29.89,9.0,Variable,3.5,-,N/A,,Clear,0,2012-10-03 12:53:00
8:53 AM,46.0,39.9,79,29.91,5.0,Calm,Calm,-,N/A,,Haze,0,2012-10-03 13:53:00
9:53 AM,48.9,41.0,74,29.93,10.0,NW,12.7,-,N/A,,Clear,320,2012-10-03 14:53:00
10:53 AM,50.0,42.1,74,29.95,10.0,NNW,12.7,-,N/A,,Clear,330,2012-10-03 15:53:00
11:53 AM,52.0,42.1,69,29.96,10.0,NW,9.2,-,N/A,,Clear,320,2012-10-03 16:53:00
12:53 PM,55.9,41.0,57,29.96,10.0,NNW,12.7,-,N/A,,Clear,340,2012-10-03 17:53:00
1:53 PM,55.0,42.1,62,29.96,10.0,NNW,11.5,-,N/A,,Mostly Cloudy,330,2012-10-03 18:53:00
2:53 PM,52.0,42.1,69,30.04,10.0,NW,13.8,20.7,N/A,,Overcast,310,2012-10-03 19:53:00
3:53 PM,53.1,42.1,66,29.97,10.0,North,16.1,21.9,0.00,,Scattered Clouds,350,2012-10-03 20:53:00
4:53 PM,53.1,41.0,64,30.01,10.0,North,11.5,-,N/A,,Overcast,360,2012-10-03 21:53:00
5:53 PM,52.0,42.1,69,30.01,10.0,North,8.1,-,N/A,,Overcast,360,2012-10-03 22:53:00
6:53 PM,51.1,42.1,71,30.00,10.0,North,11.5,-,0.00,Rain,Light Rain,360,2012-10-03 23:53:00
7:53 PM,48.9,42.1,77,30.02,10.0,North,15.0,-,0.00,,Overcast,360,2012-10-04 00:53:00
8:53 PM,48.0,41.0,77,30.04,10.0,North,15.0,23.0,N/A,,Overcast,350,2012-10-04 01:53:00
9:53 PM,46.0,39.9,79,30.06,10.0,North,17.3,26.5,N/A,,Mostly Cloudy,360,2012-10-04 02:53:00
10:08 PM,46.4,39.2,76,30.03,10.0,North,17.3,24.2,N/A,,Mostly Cloudy,10,2012-10-04 03:08:00
10:15 PM,46.4,39.2,76,30.03,10.0,North,20.7,26.5,N/A,,Mostly Cloudy,10,2012-10-04 03:15:00
10:44 PM,46.4,39.2,76,30.03,10.0,NNE,16.1,28.8,N/A,,Mostly Cloudy,20,2012-10-04 03:44:00
10:53 PM,46.0,39.0,76,30.06,10.0,North,15.0,21.9,N/A,,Mostly Cloudy,10,2012-10-04 03:53:00
11:18 PM,44.6,39.2,81,30.02,10.0,NNE,17.3,23.0,N/A,,Scattered Clouds,20,2012-10-04 04:18:00
11:53 PM,45.0,37.9,76,30.02,10.0,NNE,18.4,23.0,N/A,,Partly Cloudy,30,2012-10-04 04:53:00